GFSNE_sfc_temp_003.txt.gz
Temp
52 52 52 53 54 53 52 50 44 38 40 46 47 53 54 53 55 54 53 54 56 55 56 56 57 57 56 57 58 59 60 60 61 61 61 62 63 63
52 51 51 52 52 51 50 50 48 43 38 46 47 49 51 53 53 52 52 51 53 54 54 55 54 55 55 56 56 57 57 58 59 61 62 62 63 63
51 50 49 50 49 49 48 47 45 45 39 42 46 48 46 46 48 49 49 49 51 52 52 53 53 53 54 54 55 56 56 57 58 59 60 61 62 63
48 48 48 50 46 47 46 44 44 44 40 37 41 42 43 45 45 45 47 50 48 51 52 52 52 52 52 53 54 53 54 54 56 57 58 59 60 61
47 46 46 46 43 44 43 42 42 43 41 38 36 41 41 43 42 44 44 45 48 49 50 50 50 51 52 51 51 52 52 52 53 54 55 56 58 59
46 45 46 44 43 41 41 40 41 39 38 37 36 36 38 40 41 38 37 41 41 46 46 47 48 49 49 50 50 50 50 51 53 54 54 55 54 55
44 45 45 44 44 44 43 40 38 36 36 35 33 34 34 35 34 37 35 36 38 40 39 41 42 43 45 48 49 49 50 50 51 51 53 55 54 54
41 43 44 44 44 44 44 43 42 37 34 32 32 30 32 34 36 33 33 31 28 39 37 36 41 40 43 45 48 48 49 49 49 50 50 51 53 53
42 42 43 45 43 41 42 42 41 41 40 37 31 32 32 33 33 31 30 30 30 35 35 32 38 37 41 44 46 47 46 46 46 48 48 50 51 52
42 42 41 41 41 40 39 36 36 36 39 39 37 35 35 35 34 34 32 31 32 35 37 29 35 33 38 39 43 44 45 44 44 44 45 46 47 49
42 41 40 40 41 41 36 33 35 35 40 40 39 39 39 39 38 34 28 27 27 29 33 31 31 31 33 34 38 42 39 42 43 43 44 44 45 47
39 39 41 40 41 40 36 34 30 32 33 33 34 35 36 35 37 34 31 26 26 24 31 28 28 29 28 32 34 35 36 40 40 39 40 44 45 45
35 37 39 40 39 39 39 34 33 35 33 31 31 31 32 32 32 32 32 29 25 25 31 31 28 29 28 28 32 33 33 35 34 35 42 47 48 48
35 37 37 37 38 38 37 37 37 36 31 29 28 28 28 28 29 29 30 30 31 29 32 31 28 28 27 26 25 30 31 32 32 33 36 41 45 47
38 37 36 38 38 36 36 36 35 30 29 26 26 26 27 28 28 28 30 30 30 31 33 32 31 30 27 25 25 27 28 32 32 32 34 33 34 37
36 33 36 36 36 34 33 32 31 30 29 27 26 26 27 27 26 28 26 27 27 29 32 31 29 28 26 27 26 25 28 29 31 32 32 33 34 36
35 34 32 31 28 29 29 29 29 29 27 26 25 25 25 26 26 27 27 28 27 25 25 27 28 28 28 28 27 29 29 29 31 32 33 32 32 33
33 29 27 27 26 26 26 26 27 27 26 25 24 24 24 24 24 26 27 27 26 25 25 25 24 24 27 29 31 28 29 29 31 32 33 32 32 34
29 27 26 26 25 26 25 25 23 25 25 24 23 24 24 24 24 25 27 27 26 26 25 25 23 21 24 21 26 32 28 29 30 29 30 30 31 32
28 26 25 25 25 25 24 23 23 24 23 23 23 23 24 24 24 26 26 25 25 25 24 24 22 21 19 20 23 26 32 28 28 27 28 30 32 37
26 26 26 25 25 25 24 24 23 23 24 23 23 23 24 25 25 26 26 28 27 25 24 24 24 29 23 25 24 24 28 32 31 29 29 28 27 29
26 25 25 25 25 24 23 23 23 23 23 23 23 25 25 26 26 25 25 24 24 25 26 27 28 27 27 24 23 24 26 29 32 34 35 34 28 24
25 25 25 25 24 24 23 23 23 23 23 24 24 26 26 26 26 26 25 25 26 26 26 27 26 25 26 26 25 25 26 28 29 29 30 37 38 38

GFSNE_sfc_temp_006.txt.gz
Temp
42 41 43 46 46 45 44 44 39 33 35 41 41 47 47 48 49 49 48 50 52 52 52 53 53 53 53 54 55 55 56 56 57 58 59 60 61 61
46 43 44 45 45 44 44 42 41 37 32 40 41 43 45 47 47 46 46 48 49 50 51 51 51 52 53 53 53 54 54 55 56 57 58 60 62 62
42 43 43 44 43 42 42 41 39 38 33 37 40 42 41 40 42 43 44 44 45 49 50 49 50 50 51 52 52 53 52 53 54 55 57 58 59 60
41 41 41 45 41 41 40 39 37 37 35 32 37 37 38 40 40 40 43 45 44 47 47 48 48 49 49 49 50 51 51 50 51 52 53 55 56 58
40 39 39 40 39 39 37 37 37 39 36 34 33 37 37 38 37 39 39 39 43 44 45 46 46 46 47 48 49 49 49 47 49 50 50 53 55 56
39 39 39 39 39 37 38 37 39 36 35 33 32 32 34 36 34 33 32 36 35 40 42 42 44 44 45 46 46 47 48 49 49 51 50 51 52 52
37 38 39 41 44 43 42 39 37 35 33 31 30 30 31 31 30 32 30 32 33 35 34 35 36 37 39 42 44 45 47 47 48 47 49 50 51 51
35 37 39 41 41 44 43 43 42 36 33 30 30 30 30 31 31 30 29 27 25 34 31 31 35 34 37 38 43 44 45 46 47 47 48 49 48 49
35 36 38 41 39 37 40 41 37 38 39 35 30 29 29 30 30 28 28 28 27 31 31 28 33 31 36 39 41 42 42 43 45 46 46 46 47 49
36 36 36 36 37 38 38 33 33 35 35 36 34 34 33 34 34 33 30 28 29 31 32 25 30 29 34 36 39 40 40 43 42 41 42 44 45 45
36 37 37 37 40 41 36 32 31 32 37 38 38 38 38 38 37 33 26 25 23 26 30 26 27 28 30 31 34 39 39 40 41 41 42 43 43 43
35 36 38 39 41 40 35 33 29 29 32 30 31 31 33 32 36 32 28 23 23 22 28 24 25 26 24 31 31 34 34 37 39 40 40 41 41 40
33 32 35 39 39 38 39 33 32 35 32 28 28 28 29 29 30 30 29 26 23 23 28 29 26 26 26 25 30 32 29 30 31 33 37 39 40 45
32 33 34 37 37 38 36 37 37 35 28 27 26 26 26 25 26 27 28 28 28 27 29 28 26 26 26 25 24 29 29 29 31 32 32 36 40 44
35 35 36 36 37 34 34 35 34 27 26 24 24 24 25 26 26 26 27 29 29 29 30 30 29 27 20 21 21 23 26 28 30 32 32 33 34 37
34 31 34 34 34 32 31 30 28 28 27 25 24 25 25 25 24 26 24 25 25 27 30 29 26 25 21 21 25 25 27 25 31 32 32 33 34 37
34 30 28 27 26 26 26 27 27 27 25 25 24 23 24 24 24 25 25 25 25 26 25 27 27 26 24 24 25 28 28 29 32 32 33 33 33 36
30 26 24 24 23 24 24 25 25 25 24 24 23 23 22 22 23 25 25 25 23 24 24 25 24 22 23 26 31 27 28 28 30 32 32 33 32 33
26 24 23 23 23 24 24 23 22 24 24 23 22 22 22 22 24 23 24 25 24 24 25 25 22 21 20 19 26 33 28 29 30 30 32 33 33 34
25 23 23 24 23 23 23 22 23 23 23 23 23 22 22 22 23 23 24 24 24 25 25 25 23 22 19 19 22 28 33 29 30 29 30 33 35 39
24 24 24 23 23 23 23 23 22 22 24 22 22 22 23 23 24 25 25 27 26 24 24 24 25 32 25 26 25 26 29 34 33 29 29 30 30 32
24 23 24 24 23 23 23 22 22 22 22 22 22 23 24 25 24 24 25 24 24 24 25 24 26 26 26 25 23 25 27 30 33 35 34 34 28 26
23 24 24 23 23 23 22 22 21 22 22 22 23 24 25 24 24 25 26 26 25 26 25 25 24 24 25 25 26 26 27 28 29 30 32 36 36 36

GFSNE_sfc_temp_009.txt.gz
Temp
38 38 38 40 42 42 41 40 36 30 32 38 38 43 42 44 45 45 44 47 48 49 50 50 51 51 51 52 52 53 54 55 55 55 57 55 57 59
42 38 38 41 41 41 40 38 37 35 30 37 38 40 41 43 44 43 43 45 47 47 48 49 49 50 49 50 50 51 52 53 53 54 55 54 55 57
37 38 38 39 39 39 39 39 37 35 31 35 38 39 39 38 40 41 41 41 42 46 47 47 47 48 47 48 49 49 50 51 52 53 54 53 52 54
36 36 36 40 36 37 37 36 35 35 33 31 35 36 36 38 38 37 40 42 41 43 45 46 46 46 46 46 47 47 47 48 49 50 50 51 51 51
35 35 35 35 34 35 36 35 36 38 36 34 31 36 36 37 35 35 36 36 40 42 43 43 44 44 44 45 45 46 46 46 47 48 49 48 51 51
35 35 35 35 34 35 37 36 38 36 35 33 33 32 33 34 34 32 31 34 33 38 39 40 41 41 42 42 43 43 43 45 46 47 48 48 48 48
33 35 36 38 41 41 40 37 36 34 33 31 30 29 29 30 28 30 29 30 31 33 33 32 34 34 35 38 40 41 42 43 45 44 44 48 48 48
32 35 36 38 38 41 41 41 40 36 31 30 29 27 28 29 30 30 28 26 24 33 30 29 32 31 33 35 39 41 42 43 43 43 44 45 47 48
33 34 35 38 37 35 38 40 39 39 38 34 30 28 28 30 29 28 27 27 26 30 29 26 30 28 33 36 39 40 40 40 41 41 43 44 46 47
33 33 33 34 35 37 36 34 33 32 34 35 32 32 32 33 32 31 29 27 28 30 31 23 28 26 30 33 37 39 39 38 39 40 40 40 41 44
35 36 35 35 38 40 35 31 30 31 36 38 37 37 37 37 35 31 25 24 22 25 28 25 25 24 27 28 32 37 39 40 40 40 41 42 42 43
34 34 36 37 39 39 33 31 27 29 31 30 29 30 32 31 35 30 27 22 22 21 27 23 24 24 23 29 29 31 33 37 38 38 38 39 40 38
30 31 33 37 37 38 38 31 31 34 31 27 27 27 29 29 29 28 27 24 22 21 27 27 25 25 24 24 27 28 31 31 32 32 34 36 38 39
32 32 33 35 37 36 34 35 35 34 27 26 25 25 25 24 25 26 27 27 27 26 28 27 25 25 23 23 21 25 27 29 29 29 31 34 38 40
34 34 34 35 34 32 33 33 33 26 25 23 23 23 25 25 25 25 26 27 27 28 30 29 28 26 23 21 22 23 26 28 30 30 32 33 33 34
33 30 32 32 32 31 29 29 28 27 25 24 23 24 25 24 24 25 24 24 24 26 30 30 29 27 23 20 22 23 27 26 30 32 33 33 34 37
33 28 27 26 24 25 26 27 27 26 24 24 23 23 23 23 23 24 24 24 23 23 24 27 28 26 23 23 21 26 27 28 30 31 32 33 33 36
29 25 23 23 23 24 24 24 25 25 24 24 23 23 22 22 22 24 24 23 23 24 24 25 25 23 22 24 29 27 28 28 31 32 33 32 32 34
25 23 22 23 23 23 23 22 22 24 24 23 22 22 22 22 23 22 23 24 24 24 25 26 24 20 19 18 26 34 28 29 31 32 33 33 32 33
24 22 22 22 22 22 22 22 22 22 22 22 22 21 22 21 22 22 24 24 24 24 24 25 25 24 20 20 19 27 33 30 29 30 32 34 34 38
23 22 23 23 22 22 22 22 22 21 23 21 21 21 22 22 22 23 23 27 27 24 23 23 25 32 28 27 25 27 30 33 33 31 30 32 32 33
23 22 23 23 22 22 21 21 21 21 21 21 21 22 22 23 23 23 23 24 24 24 24 24 25 26 26 26 25 26 27 30 34 36 36 35 29 30
22 22 22 22 22 21 21 21 20 20 21 21 21 22 23 23 25 24 23 25 24 24 23 25 24 24 26 26 27 26 26 27 30 31 32 37 36 36

GFSNE_sfc_temp_015.txt.gz
Temp
34 34 33 34 34 33 33 33 29 24 26 32 32 37 38 38 41 42 41 45 47 47 48 48 48 49 49 50 50 51 51 51 50 51 52 52 53 55
37 33 33 33 33 32 32 33 32 29 24 33 34 37 38 40 41 41 41 44 45 46 46 46 47 47 47 48 48 48 48 48 48 50 51 51 52 53
34 33 33 33 31 33 32 32 31 30 26 31 35 36 35 36 38 39 40 39 36 42 44 45 45 45 46 46 46 45 47 47 48 48 49 50 51 51
33 32 32 37 31 31 31 30 30 31 29 27 31 34 34 36 36 36 36 39 37 41 42 43 44 44 45 44 44 44 44 45 45 46 46 46 47 49
32 31 31 31 30 31 31 30 31 35 33 30 29 33 34 34 33 32 33 34 37 40 41 41 42 42 43 43 44 43 43 43 43 44 44 45 46 48
33 32 31 31 30 30 32 33 35 32 32 30 30 30 31 33 31 30 29 32 31 36 37 38 39 40 40 41 41 41 41 41 42 43 43 43 44 45
31 31 33 35 39 39 37 35 33 32 30 29 29 28 28 29 27 29 28 29 29 29 30 31 32 32 33 36 37 38 38 39 40 41 41 42 43 43
29 31 31 35 35 39 39 39 39 34 30 29 26 26 26 27 28 27 27 24 22 32 29 27 31 30 31 31 36 38 39 40 40 40 41 41 42 42
29 30 31 35 35 31 35 38 35 36 37 32 26 26 26 28 28 25 25 25 24 29 28 24 29 26 30 32 36 37 38 39 40 40 40 40 41 42
29 30 30 30 31 35 34 31 30 30 31 32 31 30 31 32 31 30 27 26 27 29 30 21 26 25 29 29 34 36 37 38 39 39 40 41 42 40
30 31 32 32 36 39 34 29 29 29 34 36 36 36 36 36 34 29 24 22 21 24 28 24 24 24 26 27 30 35 37 38 39 39 40 40 40 41
31 32 36 36 38 38 33 30 24 27 28 29 28 29 31 30 34 30 25 21 21 20 26 22 23 24 21 27 26 29 29 34 36 37 38 39 39 35
31 31 32 36 37 37 36 28 29 33 30 25 25 27 28 28 28 28 27 24 21 21 27 26 23 23 22 22 26 28 28 28 28 30 34 35 35 36
30 30 31 36 35 35 32 34 35 33 26 25 24 24 24 24 25 26 27 26 26 25 26 26 23 23 22 22 22 27 28 28 27 26 28 32 35 36
32 34 34 34 33 30 31 33 32 25 24 23 23 22 23 24 25 25 26 27 27 27 27 27 26 25 25 23 23 23 25 26 28 27 29 31 31 31
33 26 31 31 30 29 28 28 26 26 26 23 22 23 24 23 23 24 23 23 23 24 29 30 29 27 25 25 23 22 25 23 27 29 31 33 34 33
32 27 25 24 23 24 24 25 25 25 23 23 21 21 22 22 22 23 23 23 21 22 24 28 29 29 28 25 22 25 26 29 31 32 32 32 33 34
27 22 21 21 21 22 22 22 23 23 22 21 21 20 19 20 20 23 22 22 21 23 24 26 26 25 27 28 29 25 29 30 32 33 33 32 32 34
22 21 20 20 20 21 21 20 20 21 22 20 19 20 21 20 21 20 21 22 22 24 25 26 25 23 22 22 28 34 28 32 32 32 32 32 31 32
22 20 19 20 20 20 20 20 20 20 20 20 21 20 19 20 20 20 21 21 23 25 24 26 25 25 24 23 23 27 33 31 32 31 31 33 34 39
21 20 21 20 20 21 20 20 20 19 21 20 19 19 20 20 19 21 21 26 27 23 22 24 26 33 28 27 25 28 32 35 34 32 32 31 31 32
21 20 20 21 20 20 19 19 19 19 19 19 19 20 20 21 21 21 22 24 23 23 24 25 28 26 24 24 25 27 29 32 35 36 36 34 30 27
20 20 20 20 20 19 19 19 19 19 19 19 20 20 21 21 22 23 24 25 24 24 23 23 25 24 25 24 27 26 27 28 30 31 32 36 36 35